Погода в Красносельском

Россия / Самарская область     54°01′48″N   50°55′37″E
темп.,
°C
ветер,
м/с
пор.,
м/с
влажн.,
%
обл.,
%
осадки,
мм/ч
давл.,
гПа
погр.,
м
16 мая, вс
вс1601:00+19юв22525 0.0 101915
04:00+17юв22555 0.0 102019
07:00+20ююв310555 0.0 1020265
10:00+26ю69394 0.0 1020537
13:00+30ююз69304 0.0 10192660
16:00+30ююз69275 0.0 10183529
19:00+26зюз234359 0.0 101830
22:00+22ююв11447 0.0 101811
17 мая, пн
пн1701:00+18ю235560 0.0 101844
04:00+17ю33575 0.0 101928
07:00+20ююв2856100 0.0 1020212
10:00+25ю4743100 0.0 1020436
13:00+30ююз4527100 0.0 10192596
16:00+31ююз332414 0.0 10183286
19:00+24з384492 0.1 1018136
22:00+22юв223990 0.1 101813
18 мая, вт
вт1801:00+20ю224511 0.0 101811
04:00+18в115097 0.0 101811
07:00+21в1251100 0.0 101959
10:00+27ююв223629 0.0 1019455
13:00+30ю232232 0.0 10182707
16:00+30юз21195 0.0 10173067
19:00+27юз01315 0.0 101711
22:00+21св5105713 0.0 1018221
19 мая, ср
ср1901:00+19в3106121 0.0 1018208
04:00+17в3106840 0.0 1018193
07:00+19в5116719 0.0 1018372
10:00+24вюв674760 0.0 1018726
13:00+26вюв674086 0.0 10171171
16:00+27вюв6739100 0.0 10171473
19:00+24вюв5115468 0.0 1016362
22:00+21юв716565 0.0 1017526
20 мая, чт
чт2001:00+18юв615540 0.0 1017479
04:00+17юв716560 0.0 1017580
07:00+17юв715600 0.0 1017640
10:00+21ююв810553 0.0 10181184
13:00+21ю71061100 0.0 10181223
16:00+20ююв69674 3.4 1018998
19:00+21ююв476519 1.9 1018209
22:00+16ююз22706 2.1 102011